Regional Weather Roundup
Issued by NWS

Home | Current Version | Previous Version | Graphics & Text | Print | Product List | Glossary On
Versions: 1 2 3 4 5 6 7 8 9 10 11 12 13 14 15 16 17 18 19 20 21 22 23 24 25 26 27 28 29 30 31 32 33 34 35 36 37 38 39 40 41 42 43 44 45 46 47 48 49 50
000
ASUS43 KMPX 221901
RWRMN
WEATHER ROUNDUP FOR MINNESOTA
NATIONAL WEATHER SERVICE TWIN CITIES/CHANHASSEN MN
200 PM CDT MON SEP 22 2014


NOTE: "FAIR" INDICATES FEW OR NO CLOUDS BELOW 12,000 FEET WITH NO
SIGNIFICANT WEATHER AND/OR OBSTRUCTIONS TO VISIBILITY. N/A MEANS
CURRENT SKY AND/OR WEATHER CONDITIONS ARE NOT AVAILABLE.

MNZ060>063-068>070-222000-
   Twin Cities Metro

CITY           SKY/WX    TMP DP  RH WIND       PRES   REMARKS
TWIN CITIES    MOSUNNY   70  51  51 W8        30.22F
ST PAUL        MOSUNNY   69  50  50 SW6       30.23F
CRYSTAL        SUNNY     70  49  47 W5        30.21F
BLAINE         MOSUNNY   70  52  52 SW7       30.22F
LAKEVILLE      SUNNY     68  52  56 W6        30.23F
EDEN PRAIRIE   SUNNY     71  51  49 VRB7      30.21F
SOUTH ST PAUL  MOSUNNY   69  50  50 W3        30.22F
LAKE ELMO      FAIR      68  52  56 W5        30.23F
$$
MNZ001>005-007-008-013>017-022>024-027-028-222000-
   Northwest Minnesota

CITY           SKY/WX    TMP DP  RH WIND       PRES   REMARKS
BEMIDJI        SUNNY     71  47  42 SW8G17    30.13F
HALLOCK        SUNNY     75  46  35 SW8       30.06F
ROSEAU         SUNNY     75  52  43 SW9       30.07F
WARROAD        SUNNY     72  54  53 W13       30.07F
THIEF RVR FALL SUNNY     72  52  49 SW10      30.10F
CROOKSTON      SUNNY     72  52  49 SW12      30.11F
FOSSTON        SUNNY     72  54  53 SW9       30.14F
DETROIT LAKES  SUNNY     70  46  43 SW7       30.17F
MOORHEAD       SUNNY     73  43  33 W10       30.14F
PARK RAPIDS    SUNNY     71  48  43 W10       30.16F
MAHNOMEN       FAIR      71  47  43 W10       30.15F
$$
MNZ006-009>011-018-025>026-222000-
   North Central Minnesota

CITY           SKY/WX    TMP DP  RH WIND       PRES   REMARKS
BAUDETTE       SUNNY     72  47  40 VRB7G17   30.07F
FLAG ISLAND    SUNNY     72  46  40 W12       30.04F
INTL FALLS     SUNNY     71  49  45 W9G22     30.08F
WASKISH        SUNNY     70  55  60 CALM      30.11F
BIG FORK       SUNNY     72  48  43 SW9G17    30.12F
LONGVILLE      SUNNY     70  52  52 W6        30.16F
GRAND RAPIDS   SUNNY     68  48  49 W7        30.15F
CRANE LAKE     SUNNY     70  48  46 W5        30.10F
ORR            SUNNY     72  46  40 W7        30.08F
COOK           SUNNY     70  48  46 W10G17    30.11F
WALKER         FAIR      71  48  44 W9        30.14F
$$
MNZ012-019>021-037-222000-
   Northeast Minnesota

CITY           SKY/WX    TMP DP  RH WIND       PRES   REMARKS
DULUTH         MOSUNNY   70  49  47 W17       30.14F
ELY            SUNNY     70  48  46 W9        30.10F
HIBBING        SUNNY     71  49  45 SW8G17    30.13F
EVELETH        SUNNY     68  48  49 SW12      30.14F
DULUTH HARBOR  SUNNY     70  54  56 W15       30.13F
TWO HARBORS    SUNNY     70  50  49 W13       30.10F
SILVER BAY     SUNNY     70  54  56 SW8       30.09F
GRAND MARAIS     N/A     56  51  84 W8        30.08F
G MARAIS ARPRT SUNNY     66  45  45 W7G16     30.09F
$$
MNZ029>031-032-039>041-046>048-054>057-064-222000-
   West Central Minnesota

CITY           SKY/WX    TMP DP  RH WIND       PRES   REMARKS
FERGUS FALLS   SUNNY     73  43  33 SW9       30.16F
WHEATON        SUNNY     72  46  40 S9        30.17F
MORRIS         SUNNY     73  52  46 S3        30.17F
ALEXANDRIA     SUNNY     70  49  47 W9        30.20F
ELBOW LAKE     FAIR      71  50  47 SW9       30.17F
WADENA         SUNNY     70  48  46 SW8       30.17F
GLENWOOD       SUNNY     72  50  46 W5        30.20F
APPLETON       SUNNY     75  46  35 SW5       30.17F
BENSON         SUNNY     72  50  46 SW3       30.19F
ORTONVILLE     SUNNY     73  46  38 S5        30.16F
MADISON        SUNNY     75  46  35 S5        30.17F
WILLMAR        FAIR      72  46  40 W9        30.22F
$$
MNZ033>034-036-042>043-049>051-058-059-222000-
   Central Minnesota

CITY           SKY/WX    TMP DP  RH WIND       PRES   REMARKS
ST CLOUD       SUNNY     72  50  45 SW9       30.19F
SAUK CENTRE    FAIR      70  49  48 SW9       30.20F
PAYNESVILLE    SUNNY     66  49  54 S8        30.21F
AITKIN         SUNNY     72  52  49 SW7       30.16F
PINE RIVER     SUNNY     70  52  52 W6        30.19F
BRAINERD       SUNNY     69  49  48 W10       30.18F
STAPLES        SUNNY     70  46  43 S5        30.18F
LONG PRAIRIE   FAIR      68  50  52 S8        30.20F
LITTLE FALLS   SUNNY     68  46  45 W3        30.19F
LITCHFIELD     SUNNY     72  50  46 SW6       30.22F
BUFFALO        SUNNY     69  49  48 CALM      30.22F
MAPLE LAKE     SUNNY     71  54  55 SW5       30.22F
$$
MNZ037-044-045-052-053-222000-
   East Central Minnesota

CITY           SKY/WX    TMP DP  RH WIND       PRES   REMARKS
PRINCETON      SUNNY     72  52  49 S7        30.20F
MORA           SUNNY     68  50  52 W5        30.21F
CAMBRIDGE      SUNNY     72  54  53 W5        30.18F
RUSH CITY      SUNNY     68  51  54 W3        30.21S
MOOSE LAKE     SUNNY     70  46  43 W10G20    30.15F
HINCKLEY       FAIR      70  52  52 W6        30.18F
CLOQUET        SUNNY     70  46  43 W13G20    30.15F
MCGREGOR       SUNNY     70  50  49 SW13      30.17F
$$
MNZ071>073-080-081-089-090-097-098-222000-
   Southwest Minnesota

CITY           SKY/WX    TMP DP  RH WIND       PRES   REMARKS
MONTEVIDEO     SUNNY     75  50  41 S3        30.19F
GRANITE FALLS  SUNNY     73  49  41 S3        30.21F
CANBY          SUNNY     72  47  40 SW8       30.19F
MARSHALL       SUNNY     72  45  37 SW8       30.19F
REDWOOD FALLS  SUNNY     72  47  40 SW9       30.20F
OLIVIA         SUNNY     70  46  43 SW6       30.20F
PIPESTONE      SUNNY     70  45  40 SW9       30.22F
WINDOM         SUNNY     72  46  40 SW10      30.23F
WORTHINGTON    SUNNY     70  46  43 SW9G16    30.24F
JACKSON        SUNNY     72  45  37 S6        30.25F
TRACY          SUNNY     72  47  41 CALM      30.22F
SLAYTON        SUNNY     70  43  37 CALM      30.23F
$$
MNZ065>067-074>077-082>085-091>093-222000-
   South Central Minnesota

CITY           SKY/WX    TMP DP  RH WIND       PRES   REMARKS
MANKATO        SUNNY     70  48  46 SW8       30.24F
NEW ULM        SUNNY     70  50  49 S6        30.22F
ST JAMES       SUNNY     72  46  40 SW6       30.24F
FAIRMONT       SUNNY     70  46  43 S8        30.25F
GLENCOE        SUNNY     70  47  43 SW8       30.22S
FARIBAULT      SUNNY     72  45  37 W6        30.24F
OWATONNA       SUNNY     68  48  49 SW5       30.24F
WASECA         SUNNY     68  45  42 S6        30.26F
ALBERT LEA     SUNNY     68  48  49 W3        30.25F
$$
MNZ078>079-086>088-094>096-222000-
   Southeast Minnesota

CITY           SKY/WX    TMP DP  RH WIND       PRES   REMARKS
ROCHESTER      SUNNY     67  51  56 VRB3      30.26F
RED WING       MOSUNNY   70  48  46 NW6       30.22F
STANTON        SUNNY     69  49  49 NW5       30.22F
DODGE CENTER   MOSUNNY   66  52  59 W5        30.25F
WINONA         MOSUNNY   70  52  52 W6        30.24F
AUSTIN         SUNNY     66  48  52 W3        30.25F
PRESTON        SUNNY     66  53  63 W6        30.26F
$$
ABBREVIATIONS USED IN REMARKS
   TC - TEMPERATURES IN CELSIUS
  WCI - WIND CHILL INDEX
   HX - HEAT INDEX
  VSB - VISIBILITY
$$



USA.gov is the U.S. government's official web portal to all federal, state and local government web resources and services.